Location: *
(37.5724°S, 58.0067°E)
Time: 16:15:13
(UTC+00:00)

NOSS 3-1 (A) - Pass Details

Date: 23 June 2021
Orbit: 729 x 1483 km, 63.4° (Epoch: 23 July)

Event Time Altitude Azimuth Distance (km) Brightness Sun altitude
Rises 14:00:13 0° 206° (SSW) 3,964 6.8 -12.1°
Reaches altitude 10° 14:05:19 10° 175° (S) 2,794 5.7 -13.1°
Maximum altitude 14:07:36 12° 155° (SSE) 2,565 5.3 -13.5°
Enters shadow 14:08:31 12° 145° (SE) 2,553 5.2 -13.7°
